Le nostre stazioni meteo in Italia

Pubblicità
Il mio iltempo24.it
Cozzo Spadaro, Italia (16480): Temperatura & dewpoint: 17.01.2019 05:00:00 - 23.01.2019 05:00:00 (CET)Cozzo Spadaro, Italia (16480): velocità del vento: 17.01.2019 05:00:00 - 23.01.2019 05:00:00 (CET)Cozzo Spadaro, Italia (16480): direzione del vento: 17.01.2019 05:00:00 - 23.01.2019 05:00:00 (CET)Cozzo Spadaro, Italia (16480): reduced air pressure: 17.01.2019 05:00:00 - 23.01.2019 05:00:00 (CET)Cozzo Spadaro, Italia (16480): visibility: 17.01.2019 05:00:00 - 23.01.2019 05:00:00 (CET)Cozzo Spadaro, Italia (16480): ore di luce: 17.01.2019 05:00:00 - 23.01.2019 05:00:00 (CET)
Data & Tempo tt [°C] td [°C] ff [km/h] ff [kn] dd ppp [hPa] vv [km] sd [min]
23.01.2019 05:00:00 - - - - - - - -
23.01.2019 04:00:00 - - - - - - - -
23.01.2019 03:00:00 - - - - - - - -
23.01.2019 02:00:00 - - - - - - - -
23.01.2019 01:00:00 - - - - - - - -
23.01.2019 00:00:00 - - - - - - - -
22.01.2019 23:00:00 - - - - - - - -
22.01.2019 22:00:00 - - - - - - - -
22.01.2019 21:00:00 - - - - - - - -
22.01.2019 20:00:00 - - - - - - - -
22.01.2019 19:00:00 11,0 6,7 9 5 ONO 1006,7 20 -
22.01.2019 18:00:00 11,4 6,5 9 5 ONO 1006,7 20 -
22.01.2019 17:00:00 12,2 6,9 13 7 ONO 1007,1 25 0
22.01.2019 16:00:00 13,2 6,5 18 10 ONO 1007,1 25 12
22.01.2019 15:00:00 13,8 7,1 21 11 O 1007,1 25 48
22.01.2019 14:00:00 14,4 7,5 26 14 ONO 1007,2 25 60
22.01.2019 13:00:00 14,2 8,0 22 12 ONO 1007,9 25 60
22.01.2019 12:00:00 14,2 9,2 18 10 O 1008,1 25 60
22.01.2019 11:00:00 14,0 9,7 21 11 ONO 1008,1 25 60
22.01.2019 10:00:00 13,8 10,6 16 9 O 1007,6 20 60
22.01.2019 09:00:00 12,8 10,0 15 8 O 1007,3 20 36
22.01.2019 08:00:00 10,4 8,5 8 4 O 1007,3 20 0
22.01.2019 07:00:00 9,4 7,4 5 3 O 1007,2 20 0
22.01.2019 06:00:00 - - - - - - - -
22.01.2019 05:00:00 - - - - - - - -
22.01.2019 04:00:00 - - - - - - - -
22.01.2019 03:00:00 - - - - - - - -
22.01.2019 02:00:00 - - - - - - - -
22.01.2019 01:00:00 - - - - - - - -
22.01.2019 00:00:00 - - - - - - - -
21.01.2019 23:00:00 - - - - - - - -
21.01.2019 22:00:00 - - - - - - - -
21.01.2019 21:00:00 - - - - - - - -
21.01.2019 20:00:00 - - - - - - - -
21.01.2019 19:00:00 13,8 11,1 2 1 SO 1009,0 15 -
21.01.2019 18:00:00 13,8 10,8 9 5 SO 1009,0 20 0
21.01.2019 17:00:00 13,8 10,4 9 5 SO 1009,0 20 0
21.01.2019 16:00:00 13,8 10,2 9 5 SO 1009,0 20 0
21.01.2019 15:00:00 14,0 10,0 13 7 SSO 1010,2 15 0
21.01.2019 14:00:00 14,0 9,8 11 6 SSO 1010,1 20 0
21.01.2019 13:00:00 13,6 11,5 9 5 SSO 1010,3 20 0
21.01.2019 12:00:00 13,6 9,7 8 4 S 1011,6 15 0
21.01.2019 11:00:00 13,6 9,5 9 5 S 1012,1 25 0
21.01.2019 10:00:00 13,0 10,2 5 3 SSO 1012,7 20 0
21.01.2019 09:00:00 12,2 10,3 5 3 SSO 1013,1 25 0
21.01.2019 08:00:00 9,6 8,0 2 1 ENE 1012,1 25 0
21.01.2019 07:00:00 9,0 7,3 2 1 NE 1012,3 25 0
21.01.2019 06:00:00 - - - - - - - -
21.01.2019 05:00:00 - - - - - - - -
21.01.2019 04:00:00 - - - - - - - -
21.01.2019 03:00:00 - - - - - - - -
21.01.2019 02:00:00 - - - - - - - -
21.01.2019 01:00:00 - - - - - - - -
21.01.2019 00:00:00 - - - - - - - -
20.01.2019 23:00:00 - - - - - - - -
20.01.2019 22:00:00 - - - - - - - -
20.01.2019 21:00:00 - - - - - - - -
20.01.2019 20:00:00 - - - - - - - -
20.01.2019 19:00:00 11,0 8,4 8 4 ONO 1012,2 15 -
20.01.2019 18:00:00 11,8 8,7 9 5 ONO 1011,8 15 -
20.01.2019 17:00:00 12,2 7,7 9 5 O 1011,3 25 36
20.01.2019 16:00:00 14,0 8,2 13 7 O 1011,2 25 60
20.01.2019 15:00:00 14,4 6,2 11 6 O 1011,6 25 60
20.01.2019 14:00:00 15,2 6,0 11 6 ONO 1012,1 25 60
20.01.2019 13:00:00 13,0 7,0 9 5 NO 1012,2 25 60
20.01.2019 12:00:00 12,2 7,5 15 8 NO 1013,3 25 18
20.01.2019 11:00:00 13,2 9,6 22 12 ONO 1013,2 25 12
20.01.2019 10:00:00 11,8 8,5 11 6 O 1013,2 25 42
20.01.2019 09:00:00 11,0 7,7 4 2 O 1013,0 25 0
20.01.2019 08:00:00 9,8 6,9 8 4 ONO 1012,2 25 0
20.01.2019 07:00:00 10,0 7,1 8 4 ONO 1012,2 20 0
20.01.2019 06:00:00 - - - - - - - -
20.01.2019 05:00:00 - - - - - - - -
20.01.2019 04:00:00 - - - - - - - -
20.01.2019 03:00:00 - - - - - - - -
20.01.2019 02:00:00 - - - - - - - -
20.01.2019 01:00:00 - - - - - - - -
20.01.2019 00:00:00 - - - - - - - -
19.01.2019 23:00:00 - - - - - - - -
19.01.2019 22:00:00 - - - - - - - -
19.01.2019 21:00:00 - - - - - - - -
19.01.2019 20:00:00 - - - - - - - -
19.01.2019 19:00:00 11,6 9,2 9 5 ONO 1012,2 18 -
19.01.2019 18:00:00 12,4 9,8 8 4 ONO 1012,2 18 0
19.01.2019 17:00:00 13,8 10,0 11 6 O 1012,0 20 36
19.01.2019 16:00:00 14,0 9,7 9 5 O 1012,1 25 24
19.01.2019 15:00:00 14,4 9,8 13 7 O 1012,2 25 30
19.01.2019 14:00:00 14,8 10,0 15 8 O 1012,7 25 60
19.01.2019 13:00:00 15,4 9,5 15 8 O 1013,3 25 60
19.01.2019 12:00:00 15,2 8,2 9 5 O 1014,1 25 60
19.01.2019 11:00:00 14,8 6,9 5 3 ONO 1014,2 25 60
19.01.2019 10:00:00 13,6 6,9 9 5 ONO 1014,2 20 60
19.01.2019 09:00:00 11,8 5,4 11 6 ONO 1013,5 20 60
19.01.2019 08:00:00 9,4 4,4 11 6 ONO 1013,2 20 6
19.01.2019 07:00:00 9,8 3,3 5 3 ONO 1013,1 15 0
19.01.2019 06:00:00 - - - - - - - -
19.01.2019 05:00:00 - - - - - - - -
19.01.2019 04:00:00 - - - - - - - -
19.01.2019 03:00:00 - - - - - - - -
19.01.2019 02:00:00 - - - - - - - -
19.01.2019 01:00:00 - - - - - - - -
19.01.2019 00:00:00 - - - - - - - -
18.01.2019 23:00:00 - - - - - - - -
18.01.2019 22:00:00 - - - - - - - -
18.01.2019 21:00:00 - - - - - - - -
18.01.2019 20:00:00 - - - - - - - -
18.01.2019 19:00:00 13,4 11,3 2 1 SE 1014,1 10 -
18.01.2019 18:00:00 14,0 11,7 4 2 SE 1014,0 10 0
18.01.2019 17:00:00 15,0 12,3 2 1 NE 1014,1 12 0
18.01.2019 16:00:00 15,8 12,4 5 3 E 1014,1 10 60
18.01.2019 15:00:00 15,8 11,2 8 4 E 1014,2 18 60
18.01.2019 14:00:00 15,6 11,2 5 3 E 1014,9 18 48
18.01.2019 13:00:00 16,0 11,6 2 1 ENE 1015,2 18 30
18.01.2019 12:00:00 15,4 11,0 2 1 NE 1016,1 15 18
18.01.2019 11:00:00 14,0 10,2 2 1 SO 1016,4 12 36
18.01.2019 10:00:00 12,0 8,5 8 4 SSO 1016,3 18 0
18.01.2019 09:00:00 11,4 8,4 4 2 O 1016,2 18 0
18.01.2019 08:00:00 11,4 8,4 11 6 SSO 1016,2 15 0
18.01.2019 07:00:00 10,0 8,3 0 0 N 1015,4 12 0
18.01.2019 06:00:00 - - - - - - - -
18.01.2019 05:00:00 - - - - - - - -
18.01.2019 04:00:00 - - - - - - - -
18.01.2019 03:00:00 - - - - - - - -
18.01.2019 02:00:00 - - - - - - - -
18.01.2019 01:00:00 - - - - - - - -
18.01.2019 00:00:00 - - - - - - - -
17.01.2019 23:00:00 - - - - - - - -
17.01.2019 22:00:00 - - - - - - - -
17.01.2019 21:00:00 - - - - - - - -
17.01.2019 20:00:00 - - - - - - - -
17.01.2019 19:00:00 11,8 10,1 8 4 SSO 1018,3 12 -
17.01.2019 18:00:00 11,6 9,9 4 2 SSO 1018,3 10 -
17.01.2019 17:00:00 11,6 9,7 4 2 SO 1018,4 10 0
17.01.2019 16:00:00 11,4 9,5 8 4 SSO 1018,6 9 0
17.01.2019 15:00:00 12,6 10,1 11 6 SO 1018,7 10 0
17.01.2019 14:00:00 12,2 9,9 15 8 SSO 1019,1 10 0
17.01.2019 13:00:00 12,0 10,6 16 9 SSO 1020,0 10 0
17.01.2019 12:00:00 12,4 10,1 15 8 SSO 1020,5 6 0
17.01.2019 11:00:00 13,0 9,2 16 9 SSO 1021,2 15 0
17.01.2019 10:00:00 12,8 9,1 15 8 SSO 1021,0 25 0
17.01.2019 09:00:00 12,4 8,9 11 6 ESE 1020,9 25 0
17.01.2019 08:00:00 12,4 9,0 11 6 SSO 1020,7 20 0
17.01.2019 07:00:00 12,0 8,7 9 5 SSO 1020,7 20 0
17.01.2019 06:00:00 - - - - - - - -
17.01.2019 05:00:00 - - - - - - - -

tt = Temperatura
td = dewpoint
ff = velocità del vento
dd = direzione del vento
ppp = reduced air pressure
vv = visibility
sd = ore di luce

Stazioni seguenti

WeatherPro
AMSI
MeteoEarth